UAL185 PGUM-PTYA

Flight info

Callsign UAL185
Flight time 1h 14m
Altitude 32000
Route IDAAS YP
Aircraft B38M/M-SDE1FGHILORVWXY/HB1

Departure

Time 2026-04-29 17:44
Airport Antonio B. Won Pat International Airport (PGUM)

Arrival

Time 2026-04-29 18:58
Airport Yap International Airport (PTYA)
Time Latitude Longitude Altitude Speed Heading
2026-04-29 17:07 13.49393 144.80770 299 ft 0 kts 151°
2026-04-29 17:33 13.49402 144.80765 302 ft 4 kts 152°
2026-04-29 17:33 13.49426 144.80752 301 ft 4 kts 150°
2026-04-29 17:33 13.49444 144.80735 299 ft 4 kts 112°
2026-04-29 17:34 13.49445 144.80711 299 ft 4 kts 64°
2026-04-29 17:34 13.49440 144.80702 299 ft 1 kts 61°
2026-04-29 17:36 13.49445 144.80712 299 ft 3 kts 60°
2026-04-29 17:37 13.49458 144.80734 300 ft 5 kts 60°
2026-04-29 17:37 13.49477 144.80769 301 ft 7 kts 60°
2026-04-29 17:37 13.49502 144.80815 299 ft 8 kts 61°
2026-04-29 17:37 13.49532 144.80873 299 ft 10 kts 63°
2026-04-29 17:38 13.49545 144.80945 299 ft 11 kts 118°
2026-04-29 17:38 13.49479 144.80993 299 ft 13 kts 152°
2026-04-29 17:38 13.49396 144.81036 303 ft 14 kts 154°
2026-04-29 17:38 13.49309 144.81019 300 ft 15 kts 241°
2026-04-29 17:39 13.49263 144.80918 300 ft 16 kts 243°
2026-04-29 17:39 13.49207 144.80808 302 ft 19 kts 241°
2026-04-29 17:39 13.49143 144.80685 299 ft 20 kts 243°
2026-04-29 17:39 13.49072 144.80551 299 ft 22 kts 241°
2026-04-29 17:40 13.48985 144.80413 298 ft 24 kts 223°
2026-04-29 17:40 13.48876 144.80275 297 ft 26 kts 240°
2026-04-29 17:40 13.48794 144.80101 296 ft 28 kts 244°
2026-04-29 17:40 13.48707 144.79915 297 ft 30 kts 244°
2026-04-29 17:41 13.48617 144.79715 291 ft 32 kts 245°
2026-04-29 17:41 13.48520 144.79502 292 ft 34 kts 245°
2026-04-29 17:41 13.48418 144.79280 288 ft 35 kts 245°
2026-04-29 17:41 13.48313 144.79053 288 ft 35 kts 245°
2026-04-29 17:42 13.48211 144.78828 291 ft 34 kts 246°
2026-04-29 17:42 13.48109 144.78605 286 ft 32 kts 244°
2026-04-29 17:42 13.48034 144.78443 283 ft 20 kts 245°
2026-04-29 17:42 13.47951 144.78388 274 ft 20 kts 160°
2026-04-29 17:43 13.47940 144.78502 271 ft 21 kts 64°
2026-04-29 17:43 13.48076 144.78800 275 ft 78 kts 65°
2026-04-29 17:43 13.48392 144.79491 281 ft 134 kts 65°
2026-04-29 17:43 13.48848 144.80487 426 ft 167 kts 64°
2026-04-29 17:44 13.49367 144.81616 960 ft 182 kts 66°
2026-04-29 17:44 13.49905 144.82774 1824 ft 174 kts 64°
2026-04-29 17:44 13.50162 144.84024 2300 ft 197 kts 98°
2026-04-29 17:44 13.49408 144.85305 2637 ft 231 kts 137°
2026-04-29 17:45 13.47858 144.85799 3442 ft 245 kts 179°
2026-04-29 17:45 13.46161 144.85345 4069 ft 264 kts 202°
2026-04-29 17:45 13.44673 144.84177 4512 ft 287 kts 232°
2026-04-29 17:45 13.43729 144.82350 5257 ft 291 kts 241°
2026-04-29 17:46 13.42750 144.80520 6035 ft 294 kts 239°
2026-04-29 17:46 13.41731 144.78677 6745 ft 298 kts 238°
2026-04-29 17:46 13.40696 144.76825 7508 ft 300 kts 238°
2026-04-29 17:46 13.39645 144.74959 8240 ft 303 kts 238°
2026-04-29 17:47 13.38588 144.73083 8998 ft 306 kts 238°
2026-04-29 17:47 13.37514 144.71184 9754 ft 308 kts 238°
2026-04-29 17:47 13.36428 144.69262 10318 ft 318 kts 238°
2026-04-29 17:47 13.35276 144.67242 10589 ft 337 kts 238°
2026-04-29 17:48 13.34067 144.65129 10986 ft 349 kts 238°
2026-04-29 17:48 13.33251 144.63697 11421 ft 350 kts 239°
2026-04-29 17:48 13.32023 144.61529 12152 ft 353 kts 239°
2026-04-29 17:48 13.30776 144.59328 12792 ft 358 kts 239°
2026-04-29 17:49 13.29521 144.57107 13497 ft 363 kts 239°
2026-04-29 17:49 13.28242 144.54857 14182 ft 365 kts 239°
2026-04-29 17:49 13.26964 144.52597 14841 ft 368 kts 239°
2026-04-29 17:49 13.25673 144.50320 15511 ft 370 kts 239°
2026-04-29 17:50 13.24368 144.48017 16091 ft 376 kts 238°
2026-04-29 17:50 13.23048 144.45687 16681 ft 380 kts 238°
2026-04-29 17:50 13.21708 144.43331 17288 ft 382 kts 238°
2026-04-29 17:50 13.20372 144.40972 17951 ft 384 kts 239°
2026-04-29 17:51 13.19028 144.38601 18548 ft 385 kts 239°
2026-04-29 17:51 13.17671 144.36210 18948 ft 391 kts 238°
2026-04-29 17:51 13.16297 144.33789 19389 ft 395 kts 239°
2026-04-29 17:51 13.14909 144.31348 19895 ft 396 kts 239°
2026-04-29 17:52 13.13518 144.28899 20386 ft 398 kts 239°
2026-04-29 17:52 13.12595 144.27271 20742 ft 399 kts 239°
2026-04-29 17:52 13.10711 144.23954 21235 ft 406 kts 239°
2026-04-29 17:52 13.09279 144.21439 21635 ft 410 kts 239°
2026-04-29 17:53 13.07845 144.18917 22187 ft 410 kts 240°
2026-04-29 17:53 13.06404 144.16382 22603 ft 413 kts 240°
2026-04-29 17:53 13.04948 144.13826 23020 ft 416 kts 240°
2026-04-29 17:53 13.03484 144.11247 23397 ft 421 kts 240°
2026-04-29 17:54 13.02003 144.08651 23806 ft 422 kts 240°
2026-04-29 17:54 13.00523 144.06055 24229 ft 421 kts 241°
2026-04-29 17:54 12.99043 144.03451 24541 ft 425 kts 240°
2026-04-29 17:54 12.97545 144.00823 24839 ft 429 kts 241°
2026-04-29 17:55 12.96036 143.98177 25210 ft 430 kts 241°
2026-04-29 17:55 12.94527 143.95531 25611 ft 430 kts 240°
2026-04-29 17:55 12.93018 143.92880 25974 ft 432 kts 240°
2026-04-29 17:55 12.91493 143.90206 26228 ft 437 kts 241°
2026-04-29 17:56 12.89952 143.87513 26607 ft 437 kts 241°
2026-04-29 17:56 12.88416 143.84818 26979 ft 438 kts 240°
2026-04-29 17:56 12.86875 143.82117 27315 ft 441 kts 240°
2026-04-29 17:56 12.85323 143.79399 27611 ft 444 kts 242°
2026-04-29 17:57 12.83759 143.76664 27941 ft 445 kts 241°
2026-04-29 17:57 12.82193 143.73927 28313 ft 445 kts 241°
2026-04-29 17:57 12.80627 143.71182 28603 ft 448 kts 241°
2026-04-29 17:57 12.79045 143.68416 28871 ft 451 kts 242°
2026-04-29 17:58 12.77478 143.65678 29216 ft 452 kts 241°
2026-04-29 17:58 12.75886 143.62897 29542 ft 453 kts 242°
2026-04-29 17:58 12.74290 143.60105 29823 ft 456 kts 242°
2026-04-29 17:58 12.72682 143.57298 30049 ft 459 kts 242°
2026-04-29 17:59 12.71067 143.54480 30351 ft 458 kts 241°
2026-04-29 17:59 12.69453 143.51663 30616 ft 459 kts 241°
2026-04-29 17:59 12.67833 143.48833 30851 ft 461 kts 242°
2026-04-29 17:59 12.66206 143.45991 31051 ft 464 kts 242°
2026-04-29 18:00 12.64571 143.43142 31342 ft 464 kts 240°
2026-04-29 18:00 12.62936 143.40291 31603 ft 465 kts 241°
2026-04-29 18:00 12.61296 143.37433 31827 ft 467 kts 242°
2026-04-29 18:00 12.59647 143.34560 31939 ft 469 kts 241°
2026-04-29 18:01 12.57994 143.31683 31938 ft 468 kts 241°
2026-04-29 18:01 12.54700 143.25943 31935 ft 468 kts 240°
2026-04-29 18:02 12.51405 143.20211 31929 ft 467 kts 241°
2026-04-29 18:02 12.48113 143.14482 31938 ft 467 kts 241°
2026-04-29 18:03 12.44822 143.08760 31929 ft 467 kts 240°
2026-04-29 18:03 12.41526 143.03035 31932 ft 467 kts 241°
2026-04-29 18:04 12.38232 142.97316 31930 ft 466 kts 241°
2026-04-29 18:04 12.34941 142.91606 31936 ft 466 kts 241°
2026-04-29 18:05 12.31647 142.85894 31930 ft 466 kts 241°
2026-04-29 18:05 12.28354 142.80188 31926 ft 466 kts 241°
2026-04-29 18:06 12.25061 142.74483 31924 ft 466 kts 240°
2026-04-29 18:06 12.21771 142.68789 31930 ft 465 kts 241°
2026-04-29 18:07 12.18504 142.63138 31929 ft 465 kts 241°
2026-04-29 18:07 12.15211 142.57446 31923 ft 465 kts 240°
2026-04-29 18:08 12.11897 142.51718 31930 ft 465 kts 240°
2026-04-29 18:08 12.08606 142.46036 31927 ft 464 kts 240°
2026-04-29 18:09 12.05336 142.40392 31922 ft 464 kts 240°
2026-04-29 18:09 12.02046 142.34719 31931 ft 464 kts 240°
2026-04-29 18:10 11.98753 142.29044 31928 ft 464 kts 240°
2026-04-29 18:10 11.95461 142.23372 31927 ft 464 kts 240°
2026-04-29 18:11 11.92169 142.17704 31930 ft 464 kts 240°
2026-04-29 18:11 11.88878 142.12040 31929 ft 464 kts 240°
2026-04-29 18:12 11.85568 142.06350 31923 ft 467 kts 240°
2026-04-29 18:12 11.82247 142.00642 31926 ft 468 kts 240°
2026-04-29 18:13 11.78927 141.94939 31923 ft 467 kts 240°
2026-04-29 18:13 11.75604 141.89235 31925 ft 467 kts 240°
2026-04-29 18:14 11.72284 141.83538 31923 ft 468 kts 240°
2026-04-29 18:14 11.68958 141.77836 31921 ft 466 kts 239°
2026-04-29 18:15 11.65641 141.72154 31925 ft 466 kts 239°
2026-04-29 18:15 11.62322 141.66469 31922 ft 466 kts 239°
2026-04-29 18:16 11.59003 141.60788 31927 ft 467 kts 240°
2026-04-29 18:16 11.55684 141.55110 31922 ft 466 kts 240°
2026-04-29 18:17 11.52361 141.49430 31918 ft 466 kts 239°
2026-04-29 18:17 11.49041 141.43755 31917 ft 466 kts 239°
2026-04-29 18:18 11.45712 141.38070 31922 ft 467 kts 239°
2026-04-29 18:18 11.42403 141.32423 31926 ft 467 kts 239°
2026-04-29 18:19 11.39061 141.26722 31918 ft 465 kts 239°
2026-04-29 18:19 11.35764 141.21098 31916 ft 465 kts 239°
2026-04-29 18:20 11.32445 141.15441 31917 ft 465 kts 239°
2026-04-29 18:20 11.29126 141.09786 31914 ft 465 kts 239°
2026-04-29 18:21 11.25811 141.04141 31916 ft 464 kts 239°
2026-04-29 18:21 11.22494 140.98497 31917 ft 464 kts 239°
2026-04-29 18:22 11.19177 140.92855 31917 ft 464 kts 239°
2026-04-29 18:22 11.15859 140.87215 31911 ft 464 kts 239°
2026-04-29 18:23 11.12539 140.81575 31915 ft 464 kts 239°
2026-04-29 18:23 11.09219 140.75936 31909 ft 465 kts 239°
2026-04-29 18:24 11.05889 140.70285 31915 ft 465 kts 239°
2026-04-29 18:24 11.02560 140.64637 31919 ft 465 kts 239°
2026-04-29 18:25 10.99226 140.58986 31917 ft 466 kts 239°
2026-04-29 18:25 10.95891 140.53334 31914 ft 466 kts 239°
2026-04-29 18:26 10.92554 140.47683 31916 ft 466 kts 239°
2026-04-29 18:26 10.89214 140.42031 31919 ft 466 kts 239°
2026-04-29 18:27 10.85894 140.36413 31913 ft 466 kts 239°
2026-04-29 18:27 10.82548 140.30757 31920 ft 467 kts 239°
2026-04-29 18:28 10.79205 140.25107 31916 ft 466 kts 239°
2026-04-29 18:28 10.75859 140.19457 31920 ft 466 kts 239°
2026-04-29 18:29 10.72511 140.13804 31917 ft 467 kts 239°
2026-04-29 18:29 10.69157 140.08145 31919 ft 467 kts 239°
2026-04-29 18:30 10.65797 140.02480 31916 ft 468 kts 239°
2026-04-29 18:30 10.62442 139.96825 31916 ft 467 kts 239°
2026-04-29 18:31 10.59079 139.91159 31922 ft 468 kts 239°
2026-04-29 18:31 10.55719 139.85502 31913 ft 468 kts 239°
2026-04-29 18:32 10.52354 139.79839 31918 ft 467 kts 239°
2026-04-29 18:32 10.47303 139.71345 31919 ft 468 kts 239°
2026-04-29 18:33 10.43937 139.65687 31920 ft 469 kts 239°
2026-04-29 18:33 10.40568 139.60029 31917 ft 467 kts 239°
2026-04-29 18:34 10.38378 139.56351 31718 ft 452 kts 239°
2026-04-29 18:34 10.36210 139.52714 31001 ft 450 kts 239°
2026-04-29 18:34 10.34588 139.49992 30357 ft 451 kts 238°
2026-04-29 18:35 10.32964 139.47267 29779 ft 450 kts 238°
2026-04-29 18:35 10.30824 139.43677 29053 ft 446 kts 238°
2026-04-29 18:35 10.29223 139.40992 28553 ft 443 kts 238°
2026-04-29 18:35 10.27635 139.38331 28065 ft 439 kts 238°
2026-04-29 18:36 10.26568 139.36544 27731 ft 437 kts 238°
2026-04-29 18:36 10.24998 139.33912 27252 ft 434 kts 238°
2026-04-29 18:36 10.23440 139.31302 26774 ft 431 kts 238°
2026-04-29 18:36 10.21890 139.28707 26303 ft 429 kts 238°
2026-04-29 18:37 10.20348 139.26123 25843 ft 426 kts 238°
2026-04-29 18:37 10.18815 139.23557 25385 ft 424 kts 238°
2026-04-29 18:37 10.17289 139.21003 24930 ft 422 kts 238°
2026-04-29 18:37 10.15767 139.18457 24481 ft 421 kts 238°
2026-04-29 18:38 10.14252 139.15921 24045 ft 419 kts 238°
2026-04-29 18:38 10.12742 139.13395 23611 ft 418 kts 238°
2026-04-29 18:38 10.11238 139.10881 23107 ft 416 kts 238°
2026-04-29 18:38 10.09759 139.08408 22651 ft 414 kts 238°
2026-04-29 18:39 10.08273 139.05925 22221 ft 410 kts 238°
2026-04-29 18:39 10.06799 139.03460 21811 ft 407 kts 238°
2026-04-29 18:39 10.05336 139.01018 21391 ft 404 kts 238°
2026-04-29 18:39 10.03884 138.98591 20984 ft 401 kts 237°
2026-04-29 18:40 10.02442 138.96183 20584 ft 398 kts 237°
2026-04-29 18:40 10.01008 138.93789 20182 ft 396 kts 238°
2026-04-29 18:40 9.99583 138.91411 19782 ft 393 kts 237°
2026-04-29 18:40 9.98166 138.89046 19383 ft 392 kts 237°
2026-04-29 18:41 9.93950 138.82012 18191 ft 386 kts 237°
2026-04-29 18:41 9.92558 138.79689 17750 ft 385 kts 237°
2026-04-29 18:42 9.91172 138.77380 17339 ft 382 kts 237°
2026-04-29 18:42 9.89797 138.75086 16935 ft 379 kts 237°
2026-04-29 18:42 9.88433 138.72813 16553 ft 376 kts 237°
2026-04-29 18:42 9.87080 138.70557 16167 ft 373 kts 237°
2026-04-29 18:43 9.85735 138.68316 15790 ft 371 kts 237°
2026-04-29 18:43 9.84398 138.66089 15409 ft 368 kts 237°
2026-04-29 18:43 9.83069 138.63875 15030 ft 366 kts 237°
2026-04-29 18:43 9.81749 138.61676 14653 ft 364 kts 237°
2026-04-29 18:44 9.80436 138.59491 14277 ft 362 kts 237°
2026-04-29 18:44 9.79128 138.57313 13907 ft 361 kts 237°
2026-04-29 18:44 9.77827 138.55147 13513 ft 359 kts 237°
2026-04-29 18:44 9.76531 138.52991 13105 ft 357 kts 237°
2026-04-29 18:45 9.75445 138.50738 12672 ft 357 kts 249°
2026-04-29 18:45 9.74594 138.48385 12308 ft 354 kts 248°
2026-04-29 18:45 9.73735 138.46056 11956 ft 351 kts 248°
2026-04-29 18:45 9.72879 138.43750 11599 ft 348 kts 248°
2026-04-29 18:46 9.72026 138.41463 11239 ft 346 kts 248°
2026-04-29 18:46 9.71177 138.39188 10879 ft 344 kts 248°
2026-04-29 18:46 9.70334 138.36931 10512 ft 340 kts 248°
2026-04-29 18:46 9.69505 138.34711 10271 ft 331 kts 248°
2026-04-29 18:47 9.68708 138.32578 10159 ft 316 kts 248°
2026-04-29 18:47 9.67945 138.30537 10056 ft 305 kts 248°
2026-04-29 18:47 9.67199 138.28544 9803 ft 301 kts 248°
2026-04-29 18:47 9.66466 138.26585 9444 ft 301 kts 248°
2026-04-29 18:48 9.65725 138.24602 9093 ft 300 kts 248°
2026-04-29 18:48 9.64986 138.22628 8764 ft 299 kts 248°
2026-04-29 18:48 9.64249 138.20657 8452 ft 298 kts 248°
2026-04-29 18:48 9.63515 138.18697 8127 ft 297 kts 248°
2026-04-29 18:49 9.62783 138.16743 7817 ft 296 kts 248°
2026-04-29 18:49 9.62053 138.14795 7494 ft 295 kts 248°
2026-04-29 18:49 9.61326 138.12852 7181 ft 295 kts 248°
2026-04-29 18:49 9.60600 138.10914 6866 ft 294 kts 248°
2026-04-29 18:50 9.59875 138.08978 6551 ft 294 kts 248°
2026-04-29 18:50 9.59150 138.07044 6226 ft 293 kts 248°
2026-04-29 18:50 9.58426 138.05111 5883 ft 293 kts 248°
2026-04-29 18:50 9.57701 138.03179 5550 ft 293 kts 248°
2026-04-29 18:51 9.56980 138.01256 5231 ft 292 kts 248°
2026-04-29 18:51 9.56260 137.99336 4899 ft 291 kts 248°
2026-04-29 18:51 9.55545 137.97429 4629 ft 289 kts 248°
2026-04-29 18:51 9.54832 137.95528 4297 ft 288 kts 248°
2026-04-29 18:52 9.54126 137.93645 4075 ft 283 kts 248°
2026-04-29 18:52 9.53413 137.91822 3952 ft 273 kts 240°
2026-04-29 18:52 9.52210 137.90420 3757 ft 259 kts 208°
2026-04-29 18:52 9.50576 137.89861 3613 ft 242 kts 178°
2026-04-29 18:53 9.48974 137.90088 3485 ft 227 kts 160°
2026-04-29 18:53 9.47477 137.90525 3375 ft 222 kts 160°
2026-04-29 18:53 9.46140 137.91193 3259 ft 210 kts 135°
2026-04-29 18:53 9.45386 137.92388 3096 ft 198 kts 105°
2026-04-29 18:54 9.45324 137.93733 2863 ft 190 kts 79°
2026-04-29 18:54 9.45663 137.95011 2602 ft 185 kts 75°
2026-04-29 18:54 9.46024 137.96236 2405 ft 177 kts 75°
2026-04-29 18:54 9.46375 137.97392 2280 ft 160 kts 75°
2026-04-29 18:55 9.46661 137.98402 2128 ft 144 kts 74°
2026-04-29 18:55 9.46963 137.99350 1893 ft 139 kts 73°
2026-04-29 18:55 9.47266 138.00268 1671 ft 136 kts 72°
2026-04-29 18:55 9.47573 138.01168 1421 ft 133 kts 72°
2026-04-29 18:56 9.47877 138.02084 1213 ft 145 kts 72°
2026-04-29 18:56 9.48211 138.03072 1059 ft 147 kts 73°
2026-04-29 18:56 9.48516 138.04019 919 ft 136 kts 73°
2026-04-29 18:56 9.48809 138.04939 744 ft 138 kts 75°
2026-04-29 18:57 9.49117 138.05852 580 ft 138 kts 72°
2026-04-29 18:57 9.49423 138.06808 401 ft 143 kts 73°
2026-04-29 18:57 9.49733 138.07757 225 ft 136 kts 73°
2026-04-29 18:57 9.49977 138.08500 215 ft 80 kts 72°
2026-04-29 18:58 9.50092 138.08846 215 ft 37 kts 71°
2026-04-29 18:58 9.50166 138.08984 218 ft 16 kts 46°
2026-04-29 18:58 9.50151 138.09024 216 ft 2 kts 209°
2026-04-29 18:58 9.50145 138.09009 223 ft 3 kts 254°
2026-04-29 18:59 9.50137 138.08979 216 ft 6 kts 253°
2026-04-29 18:59 9.50122 138.08933 217 ft 8 kts 251°
2026-04-29 18:59 9.50101 138.08869 217 ft 11 kts 252°
2026-04-29 18:59 9.50074 138.08789 219 ft 13 kts 251°
2026-04-29 19:00 9.50046 138.08709 220 ft 12 kts 250°
2026-04-29 19:00 9.50019 138.08629 220 ft 13 kts 252°
2026-04-29 19:00 9.49981 138.08546 217 ft 13 kts 224°
2026-04-29 19:00 9.49908 138.08550 215 ft 11 kts 162°
2026-04-29 19:01 9.49869 138.08605 215 ft 11 kts 79°
2026-04-29 19:01 9.49870 138.08674 216 ft 9 kts 141°
2026-04-29 19:01 9.49839 138.08662 216 ft 5 kts 239°
2026-04-29 19:01 9.49833 138.08643 219 ft 1 kts 253°
2026-04-29 19:02 9.49830 138.08635 218 ft 0 kts 252°